,,,PA_Meas_PMT16A,,PR_Meas_QMR101_102,,RH_Meas_QMH101,,SR_Meas_QMS101,,TA_Meas_QMH101,,GenWind,,GenWind,
date,time,status,PA,status,PR,status,RH,status,SR,status,TA,status,DirAvg,status,SpdAvg,
2009-02-25, 00:00:04,VALID,998.573,VALID,0,VALID,94.882,VALID,0,VALID,23.2542,VALID,90,VALID,0.509766,
2009-02-25, 00:01:04,VALID,998.558,VALID,0,VALID,94.8591,VALID,0,VALID,23.2737,VALID,31,VALID,0.653516,
2009-02-25, 00:02:04,VALID,998.581,VALID,0,VALID,94.8362,VALID,0,VALID,23.2542,VALID,27,VALID,0.716406,
2009-02-25, 00:03:04,VALID,998.576,VALID,0,VALID,94.9354,VALID,0,VALID,23.2524,VALID,27,VALID,0.75625,
2009-02-25, 00:04:04,VALID,998.55,VALID,0,VALID,94.943,VALID,0,VALID,23.2737,VALID,27,VALID,0.500391,
2009-02-25, 00:05:04,VALID,998.49,VALID,0,VALID,94.8514,VALID,0,VALID,23.2542,VALID,27,VALID,0.365625,
2009-02-25, 00:06:04,VALID,998.466,VALID,0,VALID,94.8667,VALID,0,VALID,23.2329,VALID,27,VALID,0.359375,
2009-02-25, 00:07:04,VALID,998.459,VALID,0,VALID,94.8896,VALID,0,VALID,23.2347,VALID,27,VALID,0.573047,
2009-02-25, 00:08:04,VALID,998.427,VALID,0,VALID,94.8209,VALID,0,VALID,23.2152,VALID,27,VALID,0.768359,
2009-02-25, 00:09:04,VALID,998.4,VALID,0,VALID,94.9277,VALID,0,VALID,23.1744,VALID,26,VALID,0.803516,
2009-02-25, 00:10:04,VALID,998.415,VALID,0,VALID,94.9048,VALID,0,VALID,23.1939,VALID,26,VALID,0.821484,
2009-02-25, 00:11:04,VALID,998.412,VALID,0,VALID,94.8438,VALID,0,VALID,23.1549,VALID,25,VALID,0.842188,
2009-02-25, 00:12:04,VALID,998.389,VALID,0,VALID,94.6988,VALID,0,VALID,23.0964,VALID,25,VALID,0.835547,
2009-02-25, 00:13:04,VALID,998.376,VALID,0,VALID,94.6378,VALID,0,VALID,23.0183,VALID,25,VALID,0.905078,
2009-02-25, 00:14:04,VALID,998.367,VALID,0,VALID,94.6454,VALID,0,VALID,22.9793,VALID,25,VALID,0.874219,
2009-02-25, 00:15:04,VALID,998.363,VALID,0,VALID,94.8057,VALID,0,VALID,22.9403,VALID,25,VALID,0.748047,
2009-02-25, 00:16:04,VALID,998.331,VALID,0,VALID,94.8514,VALID,0,VALID,22.9208,VALID,25,VALID,0.551172,
2009-02-25, 00:17:04,VALID,998.327,VALID,0,VALID,94.9354,VALID,0,VALID,22.9208,VALID,25,VALID,0.427734,
2009-02-25, 00:18:04,VALID,998.308,VALID,0,VALID,94.9506,VALID,0,VALID,22.9013,VALID,25,VALID,0.190234,
2009-02-25, 00:19:04,VALID,998.289,VALID,0,VALID,94.9735,VALID,0,VALID,22.9013,VALID,25,VALID,0.116016,
2009-02-25, 00:20:04,VALID,998.27,VALID,0,VALID,95.0727,VALID,0.112286,VALID,22.9013,VALID,25,VALID,0.0875,
2009-02-25, 00:21:04,VALID,998.271,VALID,0,VALID,95.1108,VALID,0,VALID,22.9208,VALID,25,VALID,0.196484,
2009-02-25, 00:22:04,VALID,998.255,VALID,0,VALID,95.1566,VALID,0,VALID,22.9208,VALID,25,VALID,0.296094,
2009-02-25, 00:23:04,VALID,998.294,VALID,0,VALID,95.2558,VALID,0,VALID,22.9811,VALID,104,VALID,0.56875,
2009-02-25, 00:24:04,VALID,998.278,VALID,0,VALID,95.2482,VALID,0,VALID,22.9793,VALID,118,VALID,0.734375,
2009-02-25, 00:25:04,VALID,998.267,VALID,0,VALID,95.2253,VALID,0,VALID,22.9793,VALID,118,VALID,0.61875,
2009-02-25, 00:26:04,VALID,998.264,VALID,0,VALID,95.2024,VALID,0,VALID,23.0201,VALID,128,VALID,0.565625,
2009-02-25, 00:27:04,VALID,998.279,VALID,0,VALID,95.1719,VALID,0,VALID,23.0006,VALID,131,VALID,0.486328,
2009-02-25, 00:28:04,VALID,998.292,VALID,0,VALID,95.1566,VALID,0,VALID,22.9793,VALID,131,VALID,0.40625,
2009-02-25, 00:29:04,VALID,998.273,VALID,0,VALID,95.1108,VALID,0,VALID,22.9598,VALID,131,VALID,0.188672,
2009-02-25, 00:30:04,VALID,998.257,VALID,0,VALID,95.1414,VALID,0,VALID,22.9598,VALID,131,VALID,0.144531,
2009-02-25, 00:31:04,VALID,998.248,VALID,0,VALID,95.149,VALID,0,VALID,22.9598,VALID,131,VALID,0.0191406,
2009-02-25, 00:32:04,VALID,998.279,VALID,0,VALID,95.1795,VALID,0,VALID,22.9811,VALID,131,VALID,0.194531,
2009-02-25, 00:33:04,VALID,998.24,VALID,0,VALID,95.1795,VALID,0,VALID,22.9811,VALID,131,VALID,0.116406,
2009-02-25, 00:34:04,VALID,998.183,VALID,0,VALID,95.1871,VALID,0,VALID,22.9811,VALID,131,VALID,0.234375,
2009-02-25, 00:35:04,VALID,998.186,VALID,0,VALID,95.2711,VALID,0,VALID,23.0006,VALID,133,VALID,0.534375,
2009-02-25, 00:36:04,VALID,998.211,VALID,0,VALID,95.294,VALID,0,VALID,22.9988,VALID,138,VALID,0.566406,
2009-02-25, 00:37:04,VALID,998.185,VALID,0,VALID,95.294,VALID,0.112286,VALID,23.0378,VALID,138,VALID,0.741406,
2009-02-25, 00:38:04,VALID,998.149,VALID,0,VALID,95.1185,VALID,0,VALID,23.0006,VALID,141,VALID,0.777734,
2009-02-25, 00:39:04,VALID,998.159,VALID,0,VALID,95.1108,VALID,0,VALID,23.0201,VALID,148,VALID,0.762891,
2009-02-25, 00:40:04,VALID,998.134,VALID,0,VALID,95.1261,VALID,0,VALID,22.9793,VALID,151,VALID,0.871484,
2009-02-25, 00:41:04,VALID,998.123,VALID,0,VALID,95.0651,VALID,0,VALID,22.9988,VALID,150,VALID,0.687109,
2009-02-25, 00:42:04,VALID,998.132,VALID,0,VALID,95.0651,VALID,0,VALID,22.9988,VALID,156,VALID,0.919922,
2009-02-25, 00:43:04,VALID,998.1,VALID,0,VALID,94.9964,VALID,0,VALID,22.9988,VALID,165,VALID,1.03086,
2009-02-25, 00:44:04,VALID,998.115,VALID,0,VALID,95.0651,VALID,0,VALID,23.0396,VALID,163,VALID,1.20195,
2009-02-25, 00:45:04,VALID,998.132,VALID,0,VALID,94.9735,VALID,0,VALID,23.0183,VALID,157,VALID,1.08359,
2009-02-25, 00:46:04,VALID,998.124,VALID,0,VALID,94.9277,VALID,0,VALID,23.0183,VALID,164,VALID,1.16133,
2009-02-25, 00:47:04,VALID,998.108,VALID,0,VALID,94.9048,VALID,0,VALID,23.0396,VALID,162,VALID,1.01328,
2009-02-25, 00:48:04,VALID,998.077,VALID,0,VALID,94.7904,VALID,0,VALID,23.0396,VALID,166,VALID,0.985547,
2009-02-25, 00:49:04,VALID,998.053,VALID,0,VALID,94.8285,VALID,0,VALID,23.0183,VALID,162,VALID,1.01563,
2009-02-25, 00:50:04,VALID,998.03,VALID,0,VALID,94.7751,VALID,0,VALID,23.0591,VALID,156,VALID,0.74375,
2009-02-25, 00:51:04,VALID,997.991,VALID,0,VALID,94.7065,VALID,0.112286,VALID,23.0378,VALID,153,VALID,0.627344,
2009-02-25, 00:52:04,VALID,997.998,VALID,0,VALID,94.6302,VALID,0,VALID,23.0591,VALID,152,VALID,0.616016,
2009-02-25, 00:53:04,VALID,997.994,VALID,0,VALID,94.5386,VALID,0,VALID,23.0183,VALID,152,VALID,0.430469,
2009-02-25, 00:54:04,VALID,998.001,VALID,0,VALID,94.4394,VALID,0,VALID,22.9988,VALID,152,VALID,0.147266,
2009-02-25, 00:55:04,VALID,998.003,VALID,0,VALID,94.4089,VALID,0,VALID,22.9403,VALID,152,VALID,0.106641,
2009-02-25, 00:56:04,VALID,997.997,VALID,0,VALID,94.3784,VALID,0,VALID,22.9013,VALID,152,VALID,0,
2009-02-25, 00:57:04,VALID,997.984,VALID,0,VALID,94.3631,VALID,0,VALID,22.8623,VALID,152,VALID,0,
2009-02-25, 00:58:04,VALID,997.996,VALID,0,VALID,94.4394,VALID,0,VALID,22.8427,VALID,151,VALID,0.218359,
2009-02-25, 00:59:04,VALID,998.001,VALID,0,VALID,94.5157,VALID,0,VALID,22.8232,VALID,152,VALID,0,
2009-02-25, 01:00:04,VALID,997.97,VALID,0,VALID,94.5539,VALID,0,VALID,22.8232,VALID,151,VALID,0,
2009-02-25, 01:01:04,VALID,997.968,VALID,0,VALID,94.592,VALID,0,VALID,22.8037,VALID,151,VALID,0,
2009-02-25, 01:02:04,VALID,997.979,VALID,0,VALID,94.6149,VALID,0,VALID,22.8055,VALID,151,VALID,0.268359,
2009-02-25, 01:03:04,VALID,997.979,VALID,0,VALID,94.5768,VALID,0,VALID,22.786,VALID,143,VALID,0.29375,
2009-02-25, 01:04:04,VALID,997.965,VALID,0,VALID,94.5844,VALID,0,VALID,22.7452,VALID,103,VALID,0.405078,
2009-02-25, 01:05:04,VALID,997.963,VALID,0,VALID,94.6226,VALID,0.112286,VALID,22.7257,VALID,102,VALID,0.510156,
2009-02-25, 01:06:04,VALID,997.931,VALID,0,VALID,94.6302,VALID,0,VALID,22.7062,VALID,102,VALID,0.380859,
2009-02-25, 01:07:04,VALID,997.942,VALID,0,VALID,94.6683,VALID,0,VALID,22.7274,VALID,101,VALID,0.396094,
2009-02-25, 01:08:04,VALID,997.901,VALID,0,VALID,94.7141,VALID,0,VALID,22.6867,VALID,67,VALID,0.439453,
2009-02-25, 01:09:04,VALID,997.903,VALID,0,VALID,94.7751,VALID,0,VALID,22.7079,VALID,39,VALID,0.519141,
2009-02-25, 01:10:04,VALID,997.918,VALID,0,VALID,94.798,VALID,0,VALID,22.7079,VALID,39,VALID,0.582812,
2009-02-25, 01:11:04,VALID,997.941,VALID,0,VALID,94.7828,VALID,0,VALID,22.7079,VALID,39,VALID,0.658594,
2009-02-25, 01:12:04,VALID,997.958,VALID,0,VALID,94.8514,VALID,0,VALID,22.6672,VALID,39,VALID,0.669922,
2009-02-25, 01:13:04,VALID,997.963,VALID,0,VALID,94.7828,VALID,0,VALID,22.6477,VALID,39,VALID,0.628906,
2009-02-25, 01:14:04,VALID,997.941,VALID,0,VALID,94.7446,VALID,0,VALID,22.6087,VALID,46,VALID,0.370313,
2009-02-25, 01:15:04,VALID,997.952,VALID,0,VALID,94.7141,VALID,0,VALID,22.5909,VALID,46,VALID,0.255469,
2009-02-25, 01:16:04,VALID,997.937,VALID,0,VALID,94.7217,VALID,0,VALID,22.5519,VALID,46,VALID,0.11875,
2009-02-25, 01:17:04,VALID,997.893,VALID,0,VALID,94.737,VALID,0,VALID,22.5128,VALID,46,VALID,0,
2009-02-25, 01:18:04,VALID,997.866,VALID,0,VALID,94.7065,VALID,0,VALID,22.4738,VALID,46,VALID,0,
2009-02-25, 01:19:04,VALID,997.892,VALID,0,VALID,94.7065,VALID,0,VALID,22.4543,VALID,46,VALID,0,
2009-02-25, 01:20:04,VALID,997.836,VALID,0,VALID,94.7141,VALID,0,VALID,22.4153,VALID,46,VALID,0,
2009-02-25, 01:21:04,VALID,997.806,VALID,0,VALID,94.737,VALID,0,VALID,22.3763,VALID,46,VALID,0,
2009-02-25, 01:22:04,VALID,997.784,VALID,0,VALID,94.882,VALID,0,VALID,22.3958,VALID,46,VALID,0,
2009-02-25, 01:23:04,VALID,997.753,VALID,0,VALID,95.0117,VALID,0,VALID,22.3551,VALID,46,VALID,0,
2009-02-25, 01:24:04,VALID,997.746,VALID,0,VALID,95.0956,VALID,0,VALID,22.4153,VALID,46,VALID,0.175,
2009-02-25, 01:25:04,VALID,997.718,VALID,0,VALID,95.2024,VALID,0,VALID,22.4331,VALID,46,VALID,0.241797,
2009-02-25, 01:26:04,VALID,997.737,VALID,0,VALID,95.2405,VALID,0,VALID,22.4738,VALID,46,VALID,0.164063,
2009-02-25, 01:27:04,VALID,997.681,VALID,0,VALID,95.21,VALID,0,VALID,22.4933,VALID,46,VALID,0.0375,
2009-02-25, 01:28:04,VALID,997.668,VALID,0,VALID,95.1871,VALID,0,VALID,22.4933,VALID,46,VALID,0,
2009-02-25, 01:29:04,VALID,997.703,VALID,0,VALID,95.1795,VALID,0,VALID,22.4933,VALID,46,VALID,0,
2009-02-25, 01:30:04,VALID,997.69,VALID,0,VALID,95.1871,VALID,0,VALID,22.4721,VALID,46,VALID,0.0378906,
2009-02-25, 01:31:04,VALID,997.703,VALID,0,VALID,95.21,VALID,0,VALID,22.5128,VALID,46,VALID,0,
2009-02-25, 01:32:04,VALID,997.718,VALID,0,VALID,95.1643,VALID,0,VALID,22.4916,VALID,46,VALID,0,
2009-02-25, 01:33:04,VALID,997.709,VALID,0,VALID,95.088,VALID,0,VALID,22.4526,VALID,46,VALID,0,
2009-02-25, 01:34:04,VALID,997.728,VALID,0,VALID,95.0117,VALID,0,VALID,22.4348,VALID,46,VALID,0,
2009-02-25, 01:35:04,VALID,997.706,VALID,0,VALID,95.0956,VALID,0,VALID,22.4543,VALID,46,VALID,0,
2009-02-25, 01:36:04,VALID,997.706,VALID,0,VALID,95.2711,VALID,0,VALID,22.4738,VALID,46,VALID,0,
2009-02-25, 01:37:04,VALID,997.684,VALID,0,VALID,95.3016,VALID,0,VALID,22.4933,VALID,46,VALID,0.329297,
2009-02-25, 01:38:04,VALID,997.711,VALID,0,VALID,95.3321,VALID,0,VALID,22.5111,VALID,46,VALID,0.561328,
2009-02-25, 01:39:04,VALID,997.685,VALID,0,VALID,95.3779,VALID,0,VALID,22.5519,VALID,55,VALID,0.701172,
2009-02-25, 01:40:04,VALID,997.685,VALID,0,VALID,95.5076,VALID,0,VALID,22.5909,VALID,111,VALID,0.879687,
2009-02-25, 01:41:04,VALID,997.679,VALID,0,VALID,95.4313,VALID,0,VALID,22.6104,VALID,112,VALID,0.766016,
2009-02-25, 01:42:04,VALID,997.651,VALID,0,VALID,95.3626,VALID,0,VALID,22.5909,VALID,117,VALID,1.05469,
2009-02-25, 01:43:04,VALID,997.661,VALID,0,VALID,95.3092,VALID,0,VALID,22.5892,VALID,121,VALID,0.799219,
2009-02-25, 01:44:04,VALID,997.637,VALID,0,VALID,95.2787,VALID,0,VALID,22.5909,VALID,122,VALID,0.774219,
2009-02-25, 01:45:04,VALID,997.656,VALID,0,VALID,95.2787,VALID,0,VALID,22.6104,VALID,122,VALID,0.645312,
2009-02-25, 01:46:04,VALID,997.679,VALID,0,VALID,95.2177,VALID,0,VALID,22.5909,VALID,123,VALID,0.573438,
2009-02-25, 01:47:04,VALID,997.687,VALID,0,VALID,95.1871,VALID,0,VALID,22.5714,VALID,123,VALID,0.301953,
2009-02-25, 01:48:04,VALID,997.71,VALID,0,VALID,95.1566,VALID,0,VALID,22.5519,VALID,123,VALID,0.327734,
2009-02-25, 01:49:04,VALID,997.698,VALID,0,VALID,95.149,VALID,0,VALID,22.5323,VALID,123,VALID,0.140625,
2009-02-25, 01:50:04,VALID,997.694,VALID,0,VALID,95.1032,VALID,0,VALID,22.4916,VALID,123,VALID,0,
2009-02-25, 01:51:04,VALID,997.689,VALID,0,VALID,95.1032,VALID,0,VALID,22.4738,VALID,123,VALID,0.241406,
2009-02-25, 01:52:04,VALID,997.695,VALID,0,VALID,95.2177,VALID,0,VALID,22.4738,VALID,123,VALID,0.360156,
2009-02-25, 01:53:04,VALID,997.678,VALID,0,VALID,95.3092,VALID,0,VALID,22.5128,VALID,123,VALID,0.271094,
2009-02-25, 01:54:04,VALID,997.655,VALID,0,VALID,95.2024,VALID,0,VALID,22.4721,VALID,123,VALID,0.323047,
2009-02-25, 01:55:04,VALID,997.65,VALID,0,VALID,95.2634,VALID,0,VALID,22.4738,VALID,123,VALID,0.347266,
2009-02-25, 01:56:04,VALID,997.63,VALID,0,VALID,95.3397,VALID,0,VALID,22.5323,VALID,122,VALID,0.173828,
2009-02-25, 01:57:04,VALID,997.643,VALID,0,VALID,95.2482,VALID,0,VALID,22.4933,VALID,122,VALID,0,
2009-02-25, 01:58:04,VALID,997.623,VALID,0,VALID,95.1795,VALID,0,VALID,22.4331,VALID,95,VALID,0.485938,
2009-02-25, 01:59:04,VALID,997.612,VALID,0,VALID,95.3168,VALID,0,VALID,22.4738,VALID,17,VALID,0.336719,
2009-02-25, 02:00:04,VALID,997.611,VALID,0,VALID,95.355,VALID,0,VALID,22.4933,VALID,17,VALID,0.304297,
2009-02-25, 02:01:04,VALID,997.613,VALID,0,VALID,95.3397,VALID,0,VALID,22.5128,VALID,17,VALID,0.133594,
2009-02-25, 02:02:04,VALID,997.576,VALID,0,VALID,95.355,VALID,0,VALID,22.5128,VALID,17,VALID,0.237109,
2009-02-25, 02:03:04,VALID,997.572,VALID,0,VALID,95.2024,VALID,0,VALID,22.4738,VALID,17,VALID,0.31875,
2009-02-25, 02:04:04,VALID,997.535,VALID,0,VALID,95.3855,VALID,0,VALID,22.5128,VALID,17,VALID,0.00585938,
2009-02-25, 02:05:04,VALID,997.523,VALID,0,VALID,95.2329,VALID,0,VALID,22.4738,VALID,17,VALID,0,
2009-02-25, 02:06:04,VALID,997.539,VALID,0,VALID,95.2405,VALID,0,VALID,22.4543,VALID,17,VALID,0,
2009-02-25, 02:07:04,VALID,997.532,VALID,0,VALID,95.2253,VALID,0,VALID,22.4348,VALID,17,VALID,0,
2009-02-25, 02:08:04,VALID,997.569,VALID,0,VALID,95.3245,VALID,0,VALID,22.4153,VALID,17,VALID,0,
2009-02-25, 02:09:04,VALID,997.57,VALID,0,VALID,95.3931,VALID,0,VALID,22.4348,VALID,17,VALID,0.275391,
2009-02-25, 02:10:04,VALID,997.588,VALID,0,VALID,95.4237,VALID,0,VALID,22.4543,VALID,17,VALID,0.326953,
2009-02-25, 02:11:04,VALID,997.589,VALID,0,VALID,95.4313,VALID,0,VALID,22.4738,VALID,17,VALID,0.159375,
2009-02-25, 02:12:04,VALID,997.587,VALID,0,VALID,95.355,VALID,0,VALID,22.4526,VALID,17,VALID,0,
2009-02-25, 02:13:04,VALID,997.588,VALID,0,VALID,95.3474,VALID,0,VALID,22.4543,VALID,17,VALID,0.00429688,
2009-02-25, 02:14:04,VALID,997.57,VALID,0,VALID,95.3474,VALID,0,VALID,22.4543,VALID,17,VALID,0.385156,
2009-02-25, 02:15:04,VALID,997.559,VALID,0,VALID,95.4465,VALID,0,VALID,22.4543,VALID,17,VALID,0.507422,
2009-02-25, 02:16:04,VALID,997.566,VALID,0,VALID,95.4771,VALID,0,VALID,22.4738,VALID,17,VALID,0.526953,
2009-02-25, 02:17:04,VALID,997.516,VALID,0,VALID,95.355,VALID,0,VALID,22.4933,VALID,17,VALID,0.4625,
2009-02-25, 02:18:04,VALID,997.526,VALID,0,VALID,95.3779,VALID,0,VALID,22.4543,VALID,17,VALID,0.445313,
2009-02-25, 02:19:04,VALID,997.543,VALID,0,VALID,95.1795,VALID,0,VALID,22.3551,VALID,17,VALID,0.491016,
2009-02-25, 02:20:04,VALID,997.547,VALID,0,VALID,95.3474,VALID,0,VALID,22.3763,VALID,17,VALID,0.55,
2009-02-25, 02:21:04,VALID,997.521,VALID,0,VALID,95.416,VALID,0,VALID,22.3746,VALID,17,VALID,0.430078,
2009-02-25, 02:22:04,VALID,997.515,VALID,0,VALID,95.3474,VALID,0,VALID,22.3568,VALID,17,VALID,0.244922,
2009-02-25, 02:23:04,VALID,997.512,VALID,0,VALID,95.1948,VALID,0,VALID,22.2576,VALID,17,VALID,0.0265625,
2009-02-25, 02:24:04,VALID,997.501,VALID,0,VALID,95.1948,VALID,0,VALID,22.2397,VALID,17,VALID,0,
2009-02-25, 02:25:04,VALID,997.514,VALID,0,VALID,95.3397,VALID,0,VALID,22.2397,VALID,17,VALID,0,
2009-02-25, 02:26:04,VALID,997.514,VALID,0,VALID,95.5076,VALID,0,VALID,22.2788,VALID,17,VALID,0.0640625,
2009-02-25, 02:27:04,VALID,997.507,VALID,0,VALID,95.5686,VALID,0,VALID,22.2983,VALID,17,VALID,0.16875,
2009-02-25, 02:28:04,VALID,997.504,VALID,0,VALID,95.561,VALID,0,VALID,22.3178,VALID,17,VALID,0.353516,
2009-02-25, 02:29:04,VALID,997.486,VALID,0,VALID,95.5915,VALID,0,VALID,22.3551,VALID,38,VALID,0.312891,
2009-02-25, 02:30:05,VALID,997.472,VALID,0,VALID,95.5991,VALID,0,VALID,22.3568,VALID,42,VALID,0.444531,
2009-02-25, 02:31:05,VALID,997.482,VALID,0,VALID,95.6297,VALID,0,VALID,22.3763,VALID,42,VALID,0.407031,
2009-02-25, 02:32:05,VALID,997.474,VALID,0,VALID,95.4923,VALID,0,VALID,22.3763,VALID,34,VALID,0.483203,
2009-02-25, 02:33:05,VALID,997.503,VALID,0,VALID,95.6068,VALID,0,VALID,22.3958,VALID,34,VALID,0.578125,
2009-02-25, 02:34:05,VALID,997.448,VALID,0,VALID,95.5991,VALID,0,VALID,22.4153,VALID,32,VALID,0.422656,
2009-02-25, 02:35:05,VALID,997.458,VALID,0,VALID,95.5686,VALID,0,VALID,22.4153,VALID,31,VALID,0.4125,
2009-02-25, 02:36:05,VALID,997.446,VALID,0,VALID,95.6373,VALID,0,VALID,22.4348,VALID,31,VALID,0.0496094,
2009-02-25, 02:37:05,VALID,997.455,VALID,0,VALID,95.7212,VALID,0,VALID,22.4526,VALID,31,VALID,0.234766,
2009-02-25, 02:38:05,VALID,997.439,VALID,0,VALID,95.767,VALID,0,VALID,22.5111,VALID,32,VALID,0.516406,
2009-02-25, 02:39:05,VALID,997.427,VALID,0,VALID,95.7441,VALID,0,VALID,22.5909,VALID,71,VALID,0.419141,
2009-02-25, 02:40:05,VALID,997.403,VALID,0,VALID,95.6678,VALID,0,VALID,22.5909,VALID,71,VALID,0.405078,
2009-02-25, 02:41:05,VALID,997.363,VALID,0,VALID,95.5991,VALID,0,VALID,22.5909,VALID,71,VALID,0.392578,
2009-02-25, 02:42:05,VALID,997.364,VALID,0,VALID,95.5381,VALID,0,VALID,22.5714,VALID,71,VALID,0.475781,
2009-02-25, 02:43:05,VALID,997.336,VALID,0,VALID,95.5,VALID,0,VALID,22.5323,VALID,74,VALID,0.522266,
2009-02-25, 02:44:05,VALID,997.324,VALID,0,VALID,95.4313,VALID,0,VALID,22.4933,VALID,105,VALID,0.753516,
2009-02-25, 02:45:05,VALID,997.269,VALID,0,VALID,95.3703,VALID,0,VALID,22.4543,VALID,113,VALID,0.570703,
2009-02-25, 02:46:05,VALID,997.326,VALID,0,VALID,95.3626,VALID,0,VALID,22.4348,VALID,114,VALID,0.274609,
2009-02-25, 02:47:05,VALID,997.304,VALID,0,VALID,95.3321,VALID,0,VALID,22.3763,VALID,114,VALID,0.299219,
2009-02-25, 02:48:05,VALID,997.269,VALID,0,VALID,95.2558,VALID,0,VALID,22.2771,VALID,114,VALID,0.160938,
2009-02-25, 02:49:05,VALID,997.279,VALID,0,VALID,95.3779,VALID,0,VALID,22.2983,VALID,114,VALID,0.291797,
2009-02-25, 02:50:05,VALID,997.267,VALID,0,VALID,95.5076,VALID,0,VALID,22.3373,VALID,114,VALID,0.329688,
2009-02-25, 02:51:05,VALID,997.292,VALID,0,VALID,95.5686,VALID,0,VALID,22.3568,VALID,53,VALID,0.335547,
2009-02-25, 02:52:05,VALID,997.258,VALID,0,VALID,95.5991,VALID,0,VALID,22.3958,VALID,46,VALID,0.619141,
2009-02-25, 02:53:05,VALID,997.245,VALID,0,VALID,95.6602,VALID,0,VALID,22.4136,VALID,54,VALID,0.226953,
2009-02-25, 02:54:05,VALID,997.229,VALID,0,VALID,95.6907,VALID,0,VALID,22.4331,VALID,54,VALID,0.370703,
2009-02-25, 02:55:05,VALID,997.231,VALID,0,VALID,95.5381,VALID,0,VALID,22.4543,VALID,53,VALID,0.48125,
2009-02-25, 02:56:05,VALID,997.241,VALID,0,VALID,95.5381,VALID,0,VALID,22.4153,VALID,45,VALID,0.548047,
2009-02-25, 02:57:05,VALID,997.243,VALID,0,VALID,95.3626,VALID,0,VALID,22.3356,VALID,45,VALID,0.417578,
2009-02-25, 02:58:05,VALID,997.221,VALID,0,VALID,95.3626,VALID,0,VALID,22.2771,VALID,45,VALID,0.176953,
2009-02-25, 02:59:05,VALID,997.233,VALID,0,VALID,95.3397,VALID,0,VALID,22.2397,VALID,45,VALID,0.239453,
2009-02-25, 03:00:05,VALID,997.254,VALID,0,VALID,95.5,VALID,0,VALID,22.2592,VALID,45,VALID,0.212109,
2009-02-25, 03:01:05,VALID,997.239,VALID,0,VALID,95.4771,VALID,0,VALID,22.2397,VALID,45,VALID,0,
2009-02-25, 03:02:05,VALID,997.224,VALID,0,VALID,95.5305,VALID,0,VALID,22.2381,VALID,45,VALID,0.182812,
2009-02-25, 03:03:05,VALID,997.243,VALID,0,VALID,95.4771,VALID,0,VALID,22.2186,VALID,45,VALID,0.327734,
2009-02-25, 03:04:05,VALID,997.27,VALID,0,VALID,95.355,VALID,0,VALID,22.16,VALID,45,VALID,0.544922,
2009-02-25, 03:05:05,VALID,997.236,VALID,0,VALID,95.4542,VALID,0,VALID,22.1422,VALID,45,VALID,0.656641,
2009-02-25, 03:06:05,VALID,997.229,VALID,0,VALID,95.4847,VALID,0,VALID,22.1227,VALID,45,VALID,0.624219,
2009-02-25, 03:07:05,VALID,997.239,VALID,0,VALID,95.4694,VALID,0,VALID,22.1015,VALID,45,VALID,0.563281,
2009-02-25, 03:08:05,VALID,997.221,VALID,0,VALID,95.4008,VALID,0,VALID,22.043,VALID,37,VALID,0.566797,
2009-02-25, 03:09:05,VALID,997.196,VALID,0,VALID,95.5686,VALID,0,VALID,22.0642,VALID,24,VALID,0.682813,
2009-02-25, 03:10:05,VALID,997.216,VALID,0,VALID,95.6373,VALID,0,VALID,22.0625,VALID,359,VALID,0.498828,
2009-02-25, 03:11:05,VALID,997.241,VALID,0,VALID,95.5915,VALID,0,VALID,22.0837,VALID,359,VALID,0.383594,
2009-02-25, 03:12:05,VALID,997.245,VALID,0,VALID,95.6831,VALID,0,VALID,22.1227,VALID,359,VALID,0.305469,
2009-02-25, 03:13:05,VALID,997.233,VALID,0,VALID,95.7594,VALID,0,VALID,22.121,VALID,359,VALID,0.425,
2009-02-25, 03:14:05,VALID,997.207,VALID,0,VALID,95.6449,VALID,0,VALID,22.1405,VALID,11,VALID,0.694922,
2009-02-25, 03:15:05,VALID,997.209,VALID,0,VALID,95.5686,VALID,0,VALID,22.1015,VALID,34,VALID,0.692969,
2009-02-25, 03:16:05,VALID,997.21,VALID,0,VALID,95.5381,VALID,0.112286,VALID,22.0625,VALID,34,VALID,0.510547,
2009-02-25, 03:17:05,VALID,997.216,VALID,0,VALID,95.4465,VALID,0,VALID,22.0057,VALID,34,VALID,0.134375,
2009-02-25, 03:18:05,VALID,997.194,VALID,0,VALID,95.4389,VALID,0,VALID,21.926,VALID,34,VALID,0.125781,
2009-02-25, 03:19:05,VALID,997.147,VALID,0,VALID,95.5534,VALID,0,VALID,21.926,VALID,34,VALID,0.0820313,
2009-02-25, 03:20:05,VALID,997.146,VALID,0,VALID,95.5839,VALID,0,VALID,21.9667,VALID,34,VALID,0.00195313,
2009-02-25, 03:21:05,VALID,997.188,VALID,0,VALID,95.622,VALID,0,VALID,21.9455,VALID,34,VALID,0.311719,
2009-02-25, 03:22:05,VALID,997.198,VALID,0,VALID,95.9654,VALID,0,VALID,22.0642,VALID,77,VALID,0.436328,
2009-02-25, 03:23:05,VALID,997.195,VALID,0,VALID,96.0188,VALID,0,VALID,22.2397,VALID,132,VALID,0.400781,
2009-02-25, 03:24:05,VALID,997.236,VALID,0,VALID,96.0264,VALID,0,VALID,22.3161,VALID,130,VALID,0.566797,
2009-02-25, 03:25:05,VALID,997.204,VALID,0,VALID,96.0188,VALID,0,VALID,22.4136,VALID,129,VALID,0.819141,
2009-02-25, 03:26:05,VALID,997.242,VALID,0,VALID,95.8891,VALID,0,VALID,22.4348,VALID,106,VALID,0.75,
2009-02-25, 03:27:05,VALID,997.252,VALID,0,VALID,95.8051,VALID,0,VALID,22.3746,VALID,108,VALID,0.726172,
2009-02-25, 03:28:05,VALID,997.27,VALID,0,VALID,95.7136,VALID,0,VALID,22.3568,VALID,107,VALID,0.529297,
2009-02-25, 03:29:05,VALID,997.288,VALID,0,VALID,95.6831,VALID,0,VALID,22.3373,VALID,108,VALID,0.4625,
2009-02-25, 03:30:05,VALID,997.315,VALID,0,VALID,95.6144,VALID,0,VALID,22.2983,VALID,108,VALID,0.278125,
2009-02-25, 03:31:05,VALID,997.333,VALID,0,VALID,95.6297,VALID,0.112286,VALID,22.2788,VALID,108,VALID,0.217969,
2009-02-25, 03:32:05,VALID,997.343,VALID,0,VALID,95.6754,VALID,0,VALID,22.2592,VALID,108,VALID,0.16875,
2009-02-25, 03:33:05,VALID,997.322,VALID,0,VALID,95.7899,VALID,0,VALID,22.2983,VALID,109,VALID,0.342187,
2009-02-25, 03:34:05,VALID,997.3,VALID,0,VALID,95.8967,VALID,0,VALID,22.3551,VALID,125,VALID,0.310156,
2009-02-25, 03:35:05,VALID,997.284,VALID,0,VALID,95.8509,VALID,0,VALID,22.4153,VALID,102,VALID,0.533203,
2009-02-25, 03:36:05,VALID,997.316,VALID,0,VALID,95.7822,VALID,0,VALID,22.4153,VALID,118,VALID,0.742578,
2009-02-25, 03:37:05,VALID,997.251,VALID,0,VALID,95.7288,VALID,0,VALID,22.3958,VALID,144,VALID,0.328516,
2009-02-25, 03:38:05,VALID,997.264,VALID,0,VALID,95.7517,VALID,0,VALID,22.4153,VALID,138,VALID,0.216406,
2009-02-25, 03:39:05,VALID,997.238,VALID,0,VALID,95.7288,VALID,0,VALID,22.3941,VALID,138,VALID,0.108203,
2009-02-25, 03:40:05,VALID,997.195,VALID,0,VALID,95.7365,VALID,0,VALID,22.4153,VALID,138,VALID,0.408984,
2009-02-25, 03:41:05,VALID,997.161,VALID,0,VALID,95.6907,VALID,0,VALID,22.3958,VALID,136,VALID,0.358594,
2009-02-25, 03:42:05,VALID,997.13,VALID,0,VALID,95.6983,VALID,0,VALID,22.3763,VALID,118,VALID,0.462109,
2009-02-25, 03:43:05,VALID,997.101,VALID,0,VALID,95.6525,VALID,0,VALID,22.3763,VALID,95,VALID,0.589844,
2009-02-25, 03:44:05,VALID,997.117,VALID,0,VALID,95.5915,VALID,0,VALID,22.3568,VALID,91,VALID,0.298047,
2009-02-25, 03:45:05,VALID,997.117,VALID,0,VALID,95.6831,VALID,0,VALID,22.3373,VALID,85,VALID,0.984766,
2009-02-25, 03:46:05,VALID,997.174,VALID,0,VALID,95.6754,VALID,0,VALID,22.3746,VALID,84,VALID,0.603906,
2009-02-25, 03:47:05,VALID,997.195,VALID,0,VALID,95.7517,VALID,0,VALID,22.3941,VALID,76,VALID,0.600781,